[[{"header":{"parameterUnit":"m.s-1","parameterCategory":1,"la1":30.2991,"la2":30.254,"lo1":-89.0895,"lo2":-89.0444,"dy":0.0017,"dx":0.0017,"nx":28,"ny":28,"refTime":"2024-04-07T21:00:00:Z","depth":0,"parameterNumber":2,"parameterNumberName":"U-component_of_WINDS"},"data":[0,0,0,0,0,0,0,0,0,0,0,0,0,0,0,0,0,0,0,0,0,0,0,0,0,0,0,0,0,0,0,0,0,0,0,0,0,0,0,0,0,0,0,0,0,0,0,0,0,0,0,0,0,0,0,0,0,0,-5.0519,-5.0519,0,-5.0536,-5.0536,-5.0536,-5.0485,-5.0483,-5.0482,-5.048,-5.0495,-5.0497,-5.0499,0,0,0,0,0,0,0,0,0,0,0,0,0,-5.0442,-5.0443,-5.0519,-5.0519,-5.052,-5.0536,-5.0536,-5.0536,-5.0485,-5.0483,-5.0481,-5.0479,-5.0495,-5.0497,-5.0499,0,0,0,0,0,0,0,0,0,0,0,0,0,-5.0468,-5.0444,-5.0519,-5.0496,-5.0494,-5.0536,-5.0536,-5.0536,-5.0485,-5.0483,-5.0481,-5.0479,-5.0494,-5.0497,-5.05,-5.0564,0,0,-5.0508,-5.0509,0,0,0,0,0,0,0,0,-5.0467,-5.0471,-5.0499,-5.0498,-5.0496,-5.0506,-5.0514,-5.0545,-5.0486,-5.0489,-5.048,-5.0477,-5.0501,-5.0503,-5.0511,-5.0564,-5.0565,-5.0508,-5.051,-5.0511,-5.0512,0,0,0,0,0,0,0,-5.0465,-5.047,-5.0526,-5.05,-5.0498,-5.0484,-5.0486,-5.052,-5.0508,-5.0488,-5.0485,-5.0487,-5.0499,-5.0508,-5.0511,-5.0565,-5.0508,-5.0511,-5.0512,-5.0514,-5.0671,-5.0674,0,0,0,0,0,0,-5.0467,-5.0469,-5.0525,-5.0526,-5.0475,-5.0488,-5.0489,-5.0505,-5.0507,-5.0505,-5.0489,-5.0485,-5.0505,-5.0508,-5.0511,-5.0585,-5.0511,-5.0514,-5.0515,-5.0669,-5.0672,-5.0674,0,0,0,0,0,0,-5.0465,-5.0472,-5.0524,-5.0497,-5.0502,-5.0492,-5.051,-5.0506,-5.0515,-5.0508,-5.0505,-5.0501,-5.0503,-5.0507,-5.0551,-5.0585,-5.0515,-5.0518,-5.0666,-5.067,-5.0673,-5.0734,0,0,0,0,0,0,-5.0463,-5.0472,-5.0496,-5.0498,-5.0504,-5.0564,-5.0512,-5.0508,-5.0521,-5.0515,-5.0518,-5.0516,-5.0502,-5.0547,-5.0554,-5.0587,-5.052,-5.0663,-5.0667,-5.0672,-5.0728,-5.0739,-5.0748,0,0,0,0,0,-5.0461,-5.0512,-5.0498,-5.0505,-5.0534,-5.0566,-5.057,-5.0552,-5.0524,-5.0548,-5.0543,-5.0516,-5.0581,-5.0552,-5.0559,-5.0594,-5.066,-5.0666,-5.0672,-5.0724,-5.0737,-5.0748,0,0,0,0,0,0,-5.0514,-5.0512,-5.0496,-5.055,-5.0559,-5.0558,-5.0587,-5.0567,-5.0583,-5.0577,-5.0554,-5.0555,-5.0603,-5.0603,-5.0571,-5.0656,-5.0616,-5.0623,-5.0653,-5.0665,-5.0675,-5.0672,-5.0522,0,0,0,0,0,-5.0533,-5.0559,-5.0556,-5.0604,-5.0609,-5.0598,-5.0611,-5.0597,-5.0605,-5.0608,-5.0606,-5.0615,-5.0637,-5.0652,-5.0672,-5.073,-5.0729,-5.0757,-5.0767,-5.0775,-5.0781,-5.081,-5.0822,-5.0693,-5.0693,-5.0693,0,0,-5.057,-5.0573,-5.0591,-5.0615,-5.062,-5.0647,-5.0601,-5.0632,-5.0652,-5.0613,-5.0653,-5.0653,-5.066,-5.0711,-5.0733,-5.0713,-5.0817,-5.0782,-5.0789,-5.079,-5.0817,-5.0829,-5.084,-5.0697,-5.0696,-5.0696,0,0,-5.0652,-5.0658,-5.0697,-5.0704,-5.0713,-5.0705,-5.0715,-5.0717,-5.0715,-5.0756,-5.0727,-5.0751,-5.0789,-5.0796,-5.0804,-5.089,-5.0866,-5.0898,-5.0947,-5.0976,-5.0986,-5.0995,-5.1024,-5.1034,-5.0904,-5.0904,-5.0904,0,-5.0697,-5.0738,-5.072,-5.0753,-5.0764,-5.0732,-5.0771,-5.0778,-5.0793,-5.0801,-5.0779,-5.0827,-5.083,-5.0881,-5.0902,-5.0911,-5.092,-5.0895,-5.0986,-5.0995,-5.1003,-5.103,-5.1041,-5.0908,-5.0907,-5.0907,-5.0907,0,-5.0792,-5.082,-5.0852,-5.0867,-5.0882,-5.0918,-5.0906,-5.0923,-5.0909,-5.0903,-5.0945,-5.0948,-5.0967,-5.0979,-5.0965,-5.1028,-5.1015,-5.099,-5.0949,-5.1019,-5.1044,-5.1054,-5.0913,-5.0912,-5.0911,-5.091,0,0,-5.0905,-5.0912,-5.0923,-5.0929,-5.0938,-5.0959,-5.0994,-5.1014,-5.1028,-5.104,-5.1068,-5.1102,-5.1079,-5.1089,-5.1076,-5.1102,-5.1167,-5.1073,-5.1073,-5.1088,-5.1235,-5.1251,-5.1264,-5.1153,-5.1155,-5.1156,-5.1233,0,-5.0984,-5.1043,-5.1029,-5.1088,-5.1113,-5.1084,-5.1114,-5.1122,-5.1118,-5.1139,-5.1135,-5.1159,-5.1128,-5.1133,-5.1158,-5.1154,-5.1196,-5.1149,-5.1176,-5.1177,-5.1171,-5.1277,-5.1294,-5.1367,-5.1243,-5.1245,-5.1246,0,-5.1082,-5.1098,-5.116,-5.1163,-5.1174,-5.1201,-5.1218,-5.1239,-5.1247,-5.1243,-5.1255,-5.1236,-5.127,-5.1231,-5.1277,-5.1245,-5.1256,-5.1256,-5.1259,-5.1258,-5.1213,-5.1276,-5.139,-5.14,-5.1262,-5.126,-5.1259,0,-5.1155,-5.1193,-5.1234,-5.1241,-5.1247,-5.1267,-5.127,-5.1277,-5.1289,-5.1305,-5.1312,-5.1332,-5.1341,-5.1356,-5.1343,-5.1317,-5.139,-5.1351,-5.1386,-5.1386,-5.14,-5.1399,-5.1514,-5.1413,-5.1413,-5.1412,-5.1412,0,-5.1243,-5.1281,-5.1267,-5.1292,-5.1333,-5.1318,-5.1359,-5.1359,-5.1365,-5.1389,-5.1366,-5.1389,-5.1372,-5.1394,-5.1385,-5.1423,-5.1428,-5.1424,-5.1421,-5.1425,-5.1425,-5.1429,-5.1422,-5.1415,-5.1415,-5.1414,-5.1414,0,-5.133,-5.1323,-5.1365,-5.1368,-5.137,-5.14,-5.1402,-5.1425,-5.1421,-5.1451,-5.1458,-5.1451,-5.1475,-5.1465,-5.149,-5.1484,-5.1532,-5.1523,-5.1529,-5.1525,-5.156,-5.1556,-5.168,-5.1694,-5.1586,-5.1588,-5.1588,0,-5.1384,-5.1413,-5.1419,-5.1434,-5.1439,-5.1463,-5.1476,-5.1463,-5.1477,-5.149,-5.1511,-5.1533,-5.155,-5.159,-5.1586,-5.1606,-5.1596,-5.1638,-5.1598,-5.1601,-5.1593,-5.159,-5.1592,-5.1645,-5.1646,-5.1647,-5.1648,0,-5.1481,-5.1476,-5.1496,-5.1515,-5.1532,-5.1546,-5.1558,-5.1571,-5.1558,-5.1576,-5.16,-5.1614,-5.164,-5.1662,-5.1679,-5.1682,-5.1662,-5.1661,-5.1669,-5.1672,-5.1673,-5.167,-5.1547,-5.1657,-5.1656,-5.1655,-5.1655,-5.1655,-5.1552,-5.1575,-5.1583,-5.1606,-5.1615,-5.1627,-5.1648,-5.1647,-5.1667,-5.1687,-5.1679,-5.1707,-5.1715,-5.1736,-5.1742,-5.1764,-5.1747,-5.176,-5.1763,-5.1766,-5.1769,-5.1672,-5.1767,-5.1767,-5.1767,-5.1766,-5.1766,0,-5.1645,-5.1649,-5.1671,-5.1689,-5.1707,-5.1689,-5.1701,-5.1717,-5.1742,-5.1752,-5.1769,-5.1797,-5.1819,-5.1818,-5.1838,-5.1855,-5.1846,-5.186,-5.1857,-5.1858,-5.1784,-5.1773,-5.1867,-5.1867,-5.1867,-5.1867,-5.1867,-5.1867,-5.1695,-5.1734,-5.173,-5.1772,-5.1776,-5.1803,-5.1812,-5.1823,-5.183,-5.1863,-5.1881,-5.188,-5.1886,-5.1906,-5.1924,-5.1924,-5.1931,-5.1948,-5.1943,-5.1873,-5.1863,-5.1854,-5.1843,-5.195,-5.195,-5.2015,-5.2016,-5.2016]},{"header":{"parameterUnit":"m.s-1","parameterCategory":1,"la1":30.2991,"la2":30.254,"lo1":-89.0895,"lo2":-89.0444,"dy":0.0017,"dx":0.0017,"nx":28,"ny":28,"refTime":"2024-04-07T21:00:00:Z","depth":0,"parameterNumber":3,"parameterNumberName":"V-component_of_WINDS"},"data":[0,0,0,0,0,0,0,0,0,0,0,0,0,0,0,0,0,0,0,0,0,0,0,0,0,0,0,0,0,0,0,0,0,0,0,0,0,0,0,0,0,0,0,0,0,0,0,0,0,0,0,0,0,0,0,0,0,0,4.5158,4.516,0,4.5291,4.5293,4.5294,4.5312,4.5311,4.5309,4.5308,4.5439,4.5443,4.5448,0,0,0,0,0,0,0,0,0,0,0,0,0,4.4916,4.4921,4.5158,4.516,4.5161,4.5291,4.5293,4.5295,4.5312,4.531,4.5309,4.5308,4.5437,4.5443,4.5448,0,0,0,0,0,0,0,0,0,0,0,0,0,4.5032,4.4922,4.5158,4.5186,4.519,4.5291,4.5293,4.5295,4.5312,4.531,4.5309,4.5307,4.5435,4.5442,4.5449,4.5529,0,0,4.547,4.5473,0,0,0,0,0,0,0,0,4.5026,4.5041,4.518,4.5184,4.5189,4.5283,4.5255,4.5373,4.5313,4.5266,4.5308,4.5306,4.5388,4.5399,4.5428,4.5535,4.5541,4.5471,4.5475,4.5478,4.548,0,0,0,0,0,0,0,4.5018,4.5036,4.5211,4.5182,4.5187,4.5191,4.5205,4.5278,4.5335,4.527,4.5271,4.5287,4.539,4.5421,4.5431,4.5543,4.5471,4.5477,4.5481,4.5484,4.5726,4.5728,0,0,0,0,0,0,4.5005,4.5029,4.5206,4.5215,4.5101,4.5197,4.5213,4.5255,4.5335,4.5345,4.5288,4.5287,4.541,4.5423,4.5435,4.5537,4.5478,4.5484,4.5488,4.5724,4.5727,4.5729,0,0,0,0,0,0,4.5,4.5021,4.5201,4.5122,4.5146,4.5203,4.525,4.5258,4.5289,4.5349,4.5359,4.531,4.5409,4.5426,4.5507,4.5542,4.5488,4.5494,4.5721,4.5725,4.5728,4.574,0,0,0,0,0,0,4.4993,4.5019,4.505,4.5123,4.515,4.5271,4.5252,4.5262,4.5302,4.5302,4.5372,4.5381,4.5409,4.5496,4.5514,4.555,4.5499,4.5718,4.5723,4.5727,4.5737,4.5743,4.5749,0,0,0,0,0,4.4984,4.5046,4.5052,4.5073,4.5191,4.5273,4.5288,4.532,4.5304,4.5337,4.5376,4.5379,4.5535,4.5505,4.5524,4.5564,4.5716,4.5722,4.5727,4.5734,4.5742,4.5749,0,0,0,0,0,0,4.4974,4.5056,4.5063,4.5151,4.5205,4.5276,4.5317,4.5327,4.5385,4.5382,4.5418,4.5433,4.5514,4.5546,4.5511,4.5647,4.5624,4.5633,4.5623,4.5631,4.5637,4.5628,4.5505,0,0,0,0,0,4.4982,4.5044,4.5112,4.5183,4.521,4.5259,4.5296,4.5316,4.5373,4.5395,4.544,4.5494,4.5555,4.5595,4.5654,4.5741,4.5758,4.5778,4.5784,4.5789,4.5797,4.5848,4.5858,4.5746,4.5746,4.5746,0,0,4.4999,4.5052,4.5088,4.5182,4.5226,4.5289,4.5278,4.5344,4.5391,4.5405,4.5486,4.552,4.5583,4.5668,4.5708,4.5698,4.5832,4.5796,4.5799,4.5804,4.5854,4.5865,4.5874,4.5749,4.5749,4.5748,0,0,4.5063,4.5108,4.5174,4.522,4.5288,4.5321,4.5337,4.5407,4.5432,4.5514,4.5527,4.5582,4.5686,4.5732,4.5768,4.5852,4.5858,4.587,4.5903,4.5952,4.5961,4.5969,4.6001,4.6012,4.5878,4.5878,4.5878,0,4.5075,4.5171,4.5206,4.5273,4.5314,4.5333,4.54,4.5442,4.5526,4.5554,4.5542,4.5676,4.5719,4.5816,4.5837,4.5865,4.5885,4.5863,4.5957,4.5965,4.5973,4.6004,4.6016,4.5879,4.5879,4.5878,4.5878,0,4.5184,4.525,4.5295,4.5379,4.5425,4.5491,4.5536,4.5579,4.5596,4.563,4.5714,4.5767,4.5839,4.5863,4.5878,4.5964,4.5956,4.595,4.5928,4.5985,4.6015,4.6027,4.588,4.588,4.588,4.5879,0,0,4.5243,4.5348,4.5364,4.5404,4.5482,4.5534,4.5601,4.5675,4.5711,4.5768,4.5827,4.5916,4.5913,4.5954,4.5975,4.6018,4.6085,4.6008,4.601,4.6022,4.6184,4.6189,4.6203,4.6089,4.6091,4.6093,4.618,0,4.5317,4.5441,4.5476,4.558,4.5643,4.5663,4.5722,4.5776,4.581,4.5868,4.5905,4.5969,4.5958,4.5984,4.6027,4.6067,4.6118,4.6061,4.6144,4.6146,4.6129,4.6218,4.6223,4.6302,4.6191,4.6193,4.6195,0,4.542,4.5483,4.5595,4.5668,4.5696,4.5749,4.582,4.5875,4.5937,4.5959,4.6007,4.6025,4.6097,4.607,4.617,4.6131,4.6166,4.6191,4.6195,4.6205,4.6175,4.6232,4.6328,4.634,4.6213,4.6211,4.621,0,4.5455,4.5568,4.565,4.5683,4.577,4.5807,4.5845,4.5905,4.5948,4.601,4.6038,4.6106,4.6144,4.6196,4.6232,4.6209,4.6329,4.6305,4.6349,4.6348,4.6374,4.6372,4.6479,4.6394,4.6394,4.6394,4.6394,0,4.5535,4.5603,4.5668,4.5718,4.5795,4.5834,4.5909,4.5947,4.6002,4.606,4.608,4.6133,4.6177,4.6236,4.6264,4.6344,4.636,4.6379,4.6386,4.6379,4.6377,4.6403,4.6399,4.6397,4.6396,4.6396,4.6395,0,4.5588,4.5633,4.5725,4.5801,4.5822,4.5876,4.5941,4.599,4.6026,4.61,4.6119,4.6174,4.6246,4.6287,4.6376,4.6395,4.6484,4.6487,4.6464,4.6467,4.651,4.6506,4.6639,4.6659,4.6559,4.656,4.6561,0,4.5637,4.569,4.5773,4.5815,4.5855,4.5921,4.5966,4.6006,4.6052,4.6129,4.617,4.6243,4.6305,4.6418,4.6465,4.6534,4.654,4.6582,4.655,4.6542,4.6543,4.6541,4.6547,4.6587,4.6588,4.6589,4.659,0,4.572,4.5741,4.5806,4.588,4.5934,4.5993,4.6052,4.6084,4.6135,4.6185,4.6261,4.6308,4.6401,4.6474,4.6548,4.6585,4.6597,4.66,4.6614,4.6607,4.6593,4.6604,4.648,4.6596,4.6596,4.6595,4.6595,4.6595,4.5774,4.5823,4.5891,4.5963,4.6013,4.6068,4.612,4.6164,4.6228,4.6309,4.6328,4.6408,4.6471,4.6571,4.6611,4.6673,4.6665,4.6685,4.6691,4.6696,4.6698,4.6582,4.6686,4.6686,4.6686,4.6685,4.6685,0,4.586,4.5905,4.5971,4.6055,4.6113,4.6121,4.6187,4.6234,4.6305,4.6363,4.6424,4.6512,4.6583,4.6638,4.6711,4.675,4.6758,4.6768,4.6767,4.6776,4.67,4.6681,4.6762,4.6762,4.6762,4.6762,4.6762,4.6762,4.5911,4.5997,4.6026,4.6137,4.6181,4.6262,4.6299,4.6351,4.6398,4.6496,4.6557,4.6593,4.665,4.6728,4.6794,4.6808,4.6835,4.6845,4.686,4.6789,4.678,4.6773,4.6756,4.685,4.6851,4.6931,4.6932,4.6933]}]]